2021-12-01 00:03:21 r, 17.91m,0000000006Hz,0000080860c,0000000.175s, 012.8C,00002191
2021-12-01 00:13:24 r, 17.91m,0000000006Hz,0000080588c,0000000.175s, 012.8C,00002191
2021-12-01 00:23:22 r, 18.03m,0000000005Hz,0000089515c,0000000.194s, 013.2C,00002191
2021-12-01 00:33:21 r, 18.00m,0000000005Hz,0000087385c,0000000.190s, 013.2C,00002191
2021-12-01 00:43:22 r, 18.01m,0000000005Hz,0000087653c,0000000.190s, 013.5C,00002191
2021-12-01 00:53:23 r, 17.97m,0000000006Hz,0000084963c,0000000.184s, 013.5C,00002191
2021-12-01 01:03:21 r, 18.00m,0000000005Hz,0000086572c,0000000.188s, 013.5C,00002191
2021-12-01 01:13:22 r, 18.14m,0000000004Hz,0000098999c,0000000.215s, 013.5C,00002191
2021-12-01 01:23:24 r, 18.08m,0000000005Hz,0000093983c,0000000.204s, 013.8C,00002191
2021-12-01 01:33:21 r, 18.05m,0000000005Hz,0000091038c,0000000.198s, 013.8C,00002191
2021-12-01 01:43:23 r, 17.94m,0000000005Hz,0000082715c,0000000.180s, 013.8C,00002191
2021-12-01 01:53:22 r, 17.96m,0000000005Hz,0000084149c,0000000.183s, 013.8C,00002191
2021-12-01 02:03:21 r, 17.94m,0000000006Hz,0000082683c,0000000.179s, 013.8C,00002191
2021-12-01 02:13:24 r, 17.87m,0000000006Hz,0000077396c,0000000.168s, 013.8C,00002191
2021-12-01 02:23:22 r, 17.86m,0000000006Hz,0000076789c,0000000.167s, 013.8C,00002191
2021-12-01 02:33:22 r, 17.89m,0000000006Hz,0000078796c,0000000.171s, 013.8C,00002191
2021-12-01 02:43:24 r, 18.16m,0000000004Hz,0000100593c,0000000.218s, 013.8C,00002191
2021-12-01 02:53:22 r, 18.15m,0000000005Hz,0000100285c,0000000.218s, 014.1C,00002191
2021-12-01 03:03:21 r, 18.18m,0000000004Hz,0000101974c,0000000.221s, 014.1C,00002191
2021-12-01 03:13:22 r, 18.23m,0000000004Hz,0000107799c,0000000.234s, 014.1C,00002191
2021-12-01 03:23:23 r, 18.10m,0000000005Hz,0000094863c,0000000.206s, 014.1C,00002191
2021-12-01 03:33:21 r, 17.91m,0000000006Hz,0000080865c,0000000.175s, 014.1C,00002191
2021-12-01 03:43:23 r, 17.89m,0000000006Hz,0000079181c,0000000.172s, 014.1C,00002191
2021-12-01 03:53:22 r, 17.93m,0000000005Hz,0000081587c,0000000.177s, 014.1C,00002191
2021-12-01 04:03:21 r, 17.82m,0000000006Hz,0000074056c,0000000.161s, 014.1C,00002191
2021-12-01 04:13:22 r, 17.74m,0000000006Hz,0000068843c,0000000.149s, 014.1C,00002191
2021-12-01 04:23:24 r, 17.56m,0000000008Hz,0000057615c,0000000.125s, 014.1C,00002191
2021-12-01 04:33:21 r, 17.34m,0000000010Hz,0000047340c,0000000.103s, 014.1C,00002191
2021-12-01 04:43:21 r, 17.31m,0000000010Hz,0000045865c,0000000.100s, 014.1C,00002191
2021-12-01 04:53:22 r, 17.36m,0000000010Hz,0000047909c,0000000.104s, 014.1C,00002191
2021-12-01 05:03:21 r, 17.46m,0000000009Hz,0000052874c,0000000.115s, 014.1C,00002191
2021-12-01 05:13:22 r, 17.71m,0000000007Hz,0000066875c,0000000.145s, 013.8C,00002191
2021-12-01 05:23:23 r, 17.65m,0000000007Hz,0000062832c,0000000.136s, 013.8C,00002191
2021-12-01 05:33:21 r, 17.30m,0000000010Hz,0000045321c,0000000.098s, 013.8C,00002191
2021-12-01 05:43:21 r, 17.15m,0000000011Hz,0000039921c,0000000.087s, 013.5C,00002191
2021-12-01 05:53:24 r, 16.93m,0000000014Hz,0000032475c,0000000.070s, 013.5C,00002191
2021-12-01 06:03:21 r, 16.76m,0000000017Hz,0000027888c,0000000.061s, 013.8C,00002191
2021-12-01 06:13:22 r, 16.82m,0000000016Hz,0000029224c,0000000.063s, 013.8C,00002191
2021-12-01 06:23:24 r, 16.82m,0000000016Hz,0000029250c,0000000.063s, 013.8C,00002191
2021-12-01 06:33:21 r, 17.41m,0000000009Hz,0000050631c,0000000.110s, 013.8C,00002191
2021-12-01 06:43:21 r, 17.44m,0000000009Hz,0000051788c,0000000.112s, 014.1C,00002191
2021-12-01 06:53:22 r, 17.37m,0000000010Hz,0000048432c,0000000.105s, 014.1C,00002191
2021-12-01 07:03:21 r, 16.89m,0000000015Hz,0000031176c,0000000.068s, 014.1C,00002191
2021-12-01 07:13:22 r, 15.82m,0000000039Hz,0000011603c,0000000.025s, 014.5C,00002191
2021-12-01 07:23:22 r, 14.10m,0000000194Hz,0000000000c,0000000.000s, 014.5C,00002191
2021-12-01 07:33:21 r, 12.32m,0000001003Hz,0000000000c,0000000.000s, 014.5C,00002191
2021-12-01 07:43:21 r, 10.44m,0000005637Hz,0000000000c,0000000.000s, 014.5C,00002191
2021-12-01 07:53:23 r, 08.84m,0000024495Hz,0000000000c,0000000.000s, 014.1C,00002191
2021-12-01 08:03:21 r, 07.84m,0000061492Hz,0000000000c,0000000.000s, 014.1C,00002191
2021-12-01 08:13:21 r, 07.30m,0000101879Hz,0000000000c,0000000.000s, 014.1C,00002191
2021-12-01 08:23:24 r, 06.92m,0000145044Hz,0000000000c,0000000.000s, 014.5C,00002191
2021-12-01 08:33:21 r, 06.42m,0000229092Hz,0000000000c,0000000.000s, 014.5C,00002191
2021-12-01 08:43:21 r, 05.84m,0000387280Hz,0000000000c,0000000.000s, 014.5C,00002191
2021-12-01 08:53:24 r, 00.00m,0000598328Hz,0000000000c,0000000.000s, 014.5C,00002191
2021-12-01 09:03:22 r, 00.00m,0000598227Hz,0000000000c,0000000.000s, 014.8C,00002191
2021-12-01 09:13:21 r, 00.00m,0000598286Hz,0000000000c,0000000.000s, 014.8C,00002191
2021-12-01 09:23:22 r, 00.00m,0000598389Hz,0000000000c,0000000.000s, 015.1C,00002191
2021-12-01 09:33:21 r, 00.00m,0000598291Hz,0000000000c,0000000.000s, 015.1C,00002191
2021-12-01 09:43:22 r, 00.00m,0000598224Hz,0000000000c,0000000.000s, 015.4C,00002191
2021-12-01 09:53:22 r, 00.00m,0000598222Hz,0000000000c,0000000.000s, 015.7C,00002191
2021-12-01 10:03:21 r, 00.00m,0000598140Hz,0000000000c,0000000.000s, 015.7C,00002191
2021-12-01 10:13:22 r, 00.00m,0000598098Hz,0000000000c,0000000.000s, 016.1C,00002191
2021-12-01 10:23:23 r, 00.00m,0000598143Hz,0000000000c,0000000.000s, 016.4C,00002191
2021-12-01 10:33:21 r, 00.00m,0000598047Hz,0000000000c,0000000.000s, 016.4C,00002191
2021-12-01 10:43:22 r, 00.00m,0000597976Hz,0000000000c,0000000.000s, 016.4C,00002191
2021-12-01 10:53:24 r, 00.00m,0000597932Hz,0000000000c,0000000.000s, 016.4C,00002191
2021-12-01 11:03:21 r, 00.00m,0000597889Hz,0000000000c,0000000.000s, 016.1C,00002191
2021-12-01 11:13:21 r, 00.00m,0000598111Hz,0000000000c,0000000.000s, 016.4C,00002191
2021-12-01 11:23:24 r, 00.00m,0000598053Hz,0000000000c,0000000.000s, 016.7C,00002191
2021-12-01 11:33:21 r, 00.00m,0000597875Hz,0000000000c,0000000.000s, 017.0C,00002191
2021-12-01 11:43:21 r, 00.00m,0000597917Hz,0000000000c,0000000.000s, 017.4C,00002191
2021-12-01 11:53:22 r, 00.00m,0000597867Hz,0000000000c,0000000.000s, 017.4C,00002191
2021-12-01 12:03:24 r, 00.00m,0000597777Hz,0000000000c,0000000.000s, 017.4C,00002191
2021-12-01 12:13:21 r, 00.00m,0000597839Hz,0000000000c,0000000.000s, 017.4C,00002191
2021-12-01 12:23:23 r, 00.00m,0000597799Hz,0000000000c,0000000.000s, 018.0C,00002191
2021-12-01 12:33:22 r, 00.00m,0000597682Hz,0000000000c,0000000.000s, 018.6C,00002191
2021-12-01 12:43:22 r, 00.00m,0000597702Hz,0000000000c,0000000.000s, 019.0C,00002191
2021-12-01 12:53:24 r, 00.00m,0000597814Hz,0000000000c,0000000.000s, 018.3C,00002191
2021-12-01 13:03:22 r, 00.00m,0000597871Hz,0000000000c,0000000.000s, 017.7C,00002191
2021-12-01 13:13:21 r, 00.00m,0000597921Hz,0000000000c,0000000.000s, 017.4C,00002191
2021-12-01 13:23:24 r, 00.00m,0000597882Hz,0000000000c,0000000.000s, 017.4C,00002191
2021-12-01 13:33:22 r, 00.00m,0000597899Hz,0000000000c,0000000.000s, 017.4C,00002191
2021-12-01 13:43:22 r, 00.00m,0000597799Hz,0000000000c,0000000.000s, 018.0C,00002191
2021-12-01 13:53:22 r, 00.00m,0000597921Hz,0000000000c,0000000.000s, 018.3C,00002191
2021-12-01 14:03:23 r, 00.00m,0000597888Hz,0000000000c,0000000.000s, 018.0C,00002191
2021-12-01 14:13:21 r, 00.00m,0000597893Hz,0000000000c,0000000.000s, 017.4C,00002191
2021-12-01 14:23:23 r, 00.00m,0000598041Hz,0000000000c,0000000.000s, 017.0C,00002191
2021-12-01 14:33:22 r, 00.00m,0000598047Hz,0000000000c,0000000.000s, 017.0C,00002191
2021-12-01 14:43:21 r, 00.00m,0000597949Hz,0000000000c,0000000.000s, 017.4C,00002191
2021-12-01 14:53:22 r, 00.00m,0000597963Hz,0000000000c,0000000.000s, 017.4C,00002191
2021-12-01 15:03:24 r, 00.00m,0000597931Hz,0000000000c,0000000.000s, 017.4C,00002191
2021-12-01 15:13:22 r, 00.00m,0000597929Hz,0000000000c,0000000.000s, 017.0C,00002191
2021-12-01 15:23:21 r, 00.00m,0000597955Hz,0000000000c,0000000.000s, 017.4C,00002191
2021-12-01 15:33:22 r, 00.00m,0000513679Hz,0000000000c,0000000.000s, 017.4C,00002191
2021-12-01 15:43:21 r, 00.00m,0000456454Hz,0000000000c,0000000.000s, 017.0C,00002191
2021-12-01 15:53:24 r, 00.00m,0000571575Hz,0000000000c,0000000.000s, 017.0C,00002191
2021-12-01 16:03:22 r, 06.35m,0000243226Hz,0000000000c,0000000.000s, 017.0C,00002191
2021-12-01 16:13:22 r, 06.62m,0000190381Hz,0000000000c,0000000.000s, 016.7C,00002191
2021-12-01 16:23:22 r, 07.32m,0000099333Hz,0000000000c,0000000.000s, 016.7C,00002191
2021-12-01 16:33:23 r, 08.04m,0000051485Hz,0000000000c,0000000.000s, 016.4C,00002191
2021-12-01 16:43:22 r, 08.83m,0000024921Hz,0000000000c,0000000.000s, 016.4C,00002191
2021-12-01 16:53:23 r, 10.97m,0000003486Hz,0000000000c,0000000.000s, 016.1C,00002191
2021-12-01 17:03:22 r, 12.96m,0000000555Hz,0000000000c,0000000.000s, 016.1C,00002191
2021-12-01 17:13:22 r, 14.97m,0000000087Hz,0000005338c,0000000.012s, 015.7C,00002191
2021-12-01 17:23:22 r, 16.20m,0000000028Hz,0000016634c,0000000.036s, 015.7C,00002191
2021-12-01 17:33:24 r, 17.33m,0000000010Hz,0000046877c,0000000.102s, 015.7C,00002191
2021-12-01 17:43:21 r, 18.32m,0000000004Hz,0000116364c,0000000.253s, 015.7C,00002191
2021-12-01 17:53:24 r, 18.51m,0000000003Hz,0000138490c,0000000.301s, 016.1C,00002191
2021-12-01 18:03:22 r, 19.06m,0000000002Hz,0000230262c,0000000.500s, 016.1C,00002191
2021-12-01 18:13:22 r, 18.86m,0000000003Hz,0000191135c,0000000.415s, 016.1C,00002191
2021-12-01 18:23:22 r, 18.48m,0000000004Hz,0000135425c,0000000.294s, 016.1C,00002191
2021-12-01 18:33:23 r, 18.57m,0000000003Hz,0000146610c,0000000.318s, 016.1C,00002191
2021-12-01 18:43:21 r, 18.61m,0000000003Hz,0000153490c,0000000.333s, 016.1C,00002191
2021-12-01 18:53:22 r, 18.55m,0000000003Hz,0000145166c,0000000.315s, 015.7C,00002191
2021-12-01 19:03:24 r, 18.44m,0000000003Hz,0000130538c,0000000.283s, 015.7C,00002191
2021-12-01 19:13:22 r, 18.46m,0000000003Hz,0000132154c,0000000.287s, 015.7C,00002191
2021-12-01 19:23:21 r, 18.54m,0000000004Hz,0000143530c,0000000.311s, 015.7C,00002191
2021-12-01 19:33:24 r, 18.64m,0000000003Hz,0000156954c,0000000.341s, 015.7C,00002191
2021-12-01 19:43:21 r, 18.38m,0000000004Hz,0000123085c,0000000.267s, 015.7C,00002191
2021-12-01 19:53:21 r, 18.36m,0000000004Hz,0000120533c,0000000.262s, 015.7C,00002191
2021-12-01 20:03:22 r, 18.61m,0000000003Hz,0000151752c,0000000.329s, 016.1C,00002191
2021-12-01 20:13:21 r, 18.45m,0000000004Hz,0000131368c,0000000.285s, 016.1C,00002191
2021-12-01 20:23:24 r, 18.44m,0000000004Hz,0000130396c,0000000.283s, 015.7C,00002191
2021-12-01 20:33:22 r, 18.53m,0000000003Hz,0000141690c,0000000.307s, 015.7C,00002191
2021-12-01 20:43:21 r, 18.44m,0000000004Hz,0000130644c,0000000.284s, 015.4C,00002191
2021-12-01 20:53:22 r, 18.59m,0000000003Hz,0000149557c,0000000.325s, 015.4C,00002191
2021-12-01 21:03:23 r, 18.43m,0000000004Hz,0000129608c,0000000.281s, 015.1C,00002191
2021-12-01 21:13:22 r, 18.53m,0000000003Hz,0000143153c,0000000.311s, 014.8C,00002191
2021-12-01 21:23:21 r, 18.53m,0000000004Hz,0000142091c,0000000.308s, 014.8C,00002191
2021-12-01 21:33:24 r, 19.16m,0000000002Hz,0000251364c,0000000.545s, 014.5C,00002191
2021-12-01 21:43:22 r, 19.03m,0000000002Hz,0000224642c,0000000.488s, 014.5C,00002191
2021-12-01 21:53:22 r, 19.48m,0000000002Hz,0000337915c,0000000.733s, 014.5C,00002191
2021-12-01 22:03:24 r, 19.38m,0000000002Hz,0000308371c,0000000.669s, 014.1C,00002191
2021-12-01 22:13:21 r, 19.27m,0000000002Hz,0000277540c,0000000.602s, 014.1C,00002191
2021-12-01 22:23:24 r, 19.42m,0000000001Hz,0000320670c,0000000.696s, 014.1C,00002191
2021-12-01 22:33:22 r, 19.26m,0000000001Hz,0000276349c,0000000.600s, 013.8C,00002191
2021-12-01 22:43:22 r, 19.38m,0000000002Hz,0000309129c,0000000.671s, 013.8C,00002191
2021-12-01 22:53:21 r, 20.13m,0000000001Hz,0000612352c,0000001.329s, 013.5C,00002191
2021-12-01 23:03:22 r, 18.95m,0000000002Hz,0000207656c,0000000.451s, 013.5C,00002191
2021-12-01 23:13:21 r, 19.03m,0000000002Hz,0000223387c,0000000.485s, 013.2C,00002191
2021-12-01 23:23:21 r, 19.49m,0000000001Hz,0000340763c,0000000.740s, 013.2C,00002191
2021-12-01 23:33:23 r, 19.56m,0000000001Hz,0000363883c,0000000.790s, 013.2C,00002191
2021-12-01 23:43:21 r, 20.30m,0000000001Hz,0000711179c,0000001.543s, 013.2C,00002191
2021-12-01 23:53:22 r, 19.54m,0000000001Hz,0000356967c,0000000.775s, 012.8C,00002191
